EN

Hourly Weather Aberdare

Today, 2 December, Wednesday

Time Temperature Precipitation Wind Pressure Humidity
00:00 +3°C° 0 mm 1 mps 735 mmHg 90%
01:00 +3°C° 0 mm 1 mps 734 mmHg 91%
02:00 +2°C° 0 mm 0 mps 734 mmHg 91%
03:00 +2°C° 0 mm 0 mps 733 mmHg 92%
04:00 +3°C° 0 mm 0 mps 732 mmHg 93%
05:00 +4°C° 0 mm 1 mps 732 mmHg 93%
06:00 +4°C° 0 mm 1 mps 732 mmHg 94%
07:00 +5°C° 0 mm 1 mps 731 mmHg 94%
08:00 +5°C° 0 mm 1 mps 731 mmHg 95%
09:00 +6°C° 0 mm 1 mps 731 mmHg 95%
10:00 +5°C° 0.1 mm 2 mps 730 mmHg 93%
11:00 +5°C° 0.1 mm 3 mps 730 mmHg 91%
12:00 +5°C° 0.1 mm 4 mps 729 mmHg 89%
13:00 +3°C° 0 mm 5 mps 729 mmHg 86%
14:00 +3°C° 0 mm 5 mps 728 mmHg 83%
15:00 +2°C° 0 mm 5 mps 728 mmHg 81%
16:00 +2°C° 0 mm 5 mps 727 mmHg 82%
17:00 +1°C° 0 mm 5 mps 727 mmHg 83%
18:00 0°C° 0 mm 5 mps 727 mmHg 84%
19:00 0°C° 0 mm 5 mps 726 mmHg 85%
20:00 0°C° 0 mm 5 mps 725 mmHg 85%
21:00 0°C° 0 mm 4 mps 725 mmHg 85%
22:00 0°C° 0.1 mm 4 mps 724 mmHg 87%
23:00 +1°C° 0.1 mm 5 mps 723 mmHg 89%

Tomorrow, 3 December, Thursday

Time Temperature Precipitation Wind Pressure Humidity
00:00 +1°C° 0.1 mm 5 mps 722 mmHg 91%
01:00 +1°C° 0.4 mm 5 mps 721 mmHg 92%
02:00 +1°C° 0.4 mm 5 mps 720 mmHg 92%
03:00 +1°C° 0.4 mm 5 mps 719 mmHg 93%
04:00 0°C° 0.6 mm 4 mps 718 mmHg 94%
05:00 +1°C° 0.6 mm 3 mps 717 mmHg 95%
06:00 +2°C° 0.6 mm 2 mps 715 mmHg 96%
07:00 +2°C° 0.4 mm 2 mps 714 mmHg 96%
08:00 +1°C° 0.4 mm 2 mps 714 mmHg 96%
09:00 +2°C° 0.4 mm 1 mps 713 mmHg 96%
10:00 +2°C° 0.5 mm 1 mps 712 mmHg 96%
11:00 +3°C° 0.5 mm 1 mps 711 mmHg 96%
12:00 +3°C° 0.5 mm 1 mps 710 mmHg 96%
13:00 +3°C° 0.6 mm 1 mps 709 mmHg 95%
14:00 +3°C° 0.6 mm 1 mps 708 mmHg 95%
15:00 +3°C° 0.6 mm 1 mps 707 mmHg 95%
16:00 +2°C° 0.3 mm 1 mps 707 mmHg 96%
17:00 +2°C° 0.3 mm 1 mps 706 mmHg 96%
18:00 +2°C° 0.3 mm 1 mps 706 mmHg 96%
19:00 +1°C° 0.1 mm 2 mps 705 mmHg 96%
20:00 -1°C° 0.1 mm 2 mps 705 mmHg 95%
21:00 -1°C° 0.1 mm 3 mps 705 mmHg 94%
22:00 -2°C° 0 mm 3 mps 704 mmHg 94%
23:00 -2°C° 0 mm 2 mps 704 mmHg 94%

Day after tomorrow, 4 December, Friday

Time Temperature Precipitation Wind Pressure Humidity
00:00 -3°C° 0 mm 2 mps 704 mmHg 94%
01:00 -3°C° 0 mm 2 mps 704 mmHg 94%
02:00 -4°C° 0 mm 3 mps 703 mmHg 94%
03:00 -4°C° 0 mm 3 mps 703 mmHg 94%
04:00 -4°C° 0 mm 3 mps 703 mmHg 93%
05:00 -4°C° 0 mm 3 mps 703 mmHg 93%
06:00 -4°C° 0 mm 3 mps 703 mmHg 92%
07:00 -4°C° 0 mm 3 mps 704 mmHg 91%
08:00 -2°C° 0 mm 3 mps 704 mmHg 90%
09:00 -2°C° 0 mm 3 mps 704 mmHg 88%
10:00 -2°C° 0 mm 4 mps 704 mmHg 85%
11:00 -1°C° 0 mm 4 mps 704 mmHg 82%
12:00 0°C° 0 mm 5 mps 704 mmHg 79%
13:00 -1°C° 0 mm 6 mps 703 mmHg 80%
14:00 -1°C° 0 mm 7 mps 703 mmHg 80%
15:00 -1°C° 0 mm 7 mps 703 mmHg 81%
16:00 -2°C° 0.9 mm 8 mps 702 mmHg 86%
17:00 -3°C° 0.9 mm 9 mps 702 mmHg 90%
18:00 -4°C° 0.9 mm 10 mps 702 mmHg 95%
19:00 -3°C° 1.3 mm 9 mps 702 mmHg 95%
20:00 -2°C° 1.3 mm 8 mps 702 mmHg 96%
21:00 -1°C° 1.3 mm 6 mps 702 mmHg 96%
22:00 -2°C° 0.1 mm 6 mps 702 mmHg 95%
23:00 -2°C° 0.1 mm 6 mps 702 mmHg 94%

5 December, Saturday

Time Temperature Precipitation Wind Pressure Humidity
00:00 -3°C° 0.1 mm 6 mps 702 mmHg 92%
01:00 -3°C° 0 mm 6 mps 703 mmHg 93%
02:00 -3°C° 0 mm 6 mps 703 mmHg 93%
03:00 -2°C° 0 mm 5 mps 704 mmHg 94%
04:00 -3°C° 0.1 mm 6 mps 704 mmHg 94%
05:00 -3°C° 0.1 mm 6 mps 705 mmHg 95%
06:00 -3°C° 0.1 mm 6 mps 705 mmHg 96%
07:00 -2°C° 0 mm 5 mps 706 mmHg 96%
08:00 -2°C° 0 mm 5 mps 707 mmHg 95%
09:00 -2°C° 0 mm 5 mps 707 mmHg 95%
10:00 -2°C° 0.1 mm 5 mps 708 mmHg 95%
11:00 -1°C° 0.1 mm 5 mps 708 mmHg 94%
12:00 -1°C° 0.1 mm 5 mps 709 mmHg 93%
13:00 -1°C° 0.1 mm 5 mps 710 mmHg 93%
14:00 -1°C° 0.1 mm 5 mps 710 mmHg 93%
15:00 -1°C° 0.1 mm 4 mps 711 mmHg 92%
16:00 -1°C° 0 mm 4 mps 711 mmHg 93%
17:00 -2°C° 0 mm 4 mps 712 mmHg 94%
18:00 -1°C° 0 mm 3 mps 712 mmHg 95%
19:00 -1°C° 0 mm 3 mps 713 mmHg 94%
20:00 -1°C° 0 mm 3 mps 713 mmHg 93%
21:00 -1°C° 0 mm 3 mps 713 mmHg 92%
22:00 -2°C° 0 mm 3 mps 713 mmHg 93%
23:00 -2°C° 0 mm 2 mps 713 mmHg 93%

6 December, Sunday

Time Temperature Precipitation Wind Pressure Humidity
00:00 -3°C° 0 mm 2 mps 713 mmHg 94%
01:00 -3°C° 0 mm 2 mps 713 mmHg 94%
02:00 -3°C° 0 mm 2 mps 713 mmHg 93%
03:00 -3°C° 0 mm 2 mps 713 mmHg 93%
04:00 -3°C° 0 mm 2 mps 713 mmHg 92%
05:00 -3°C° 0 mm 2 mps 713 mmHg 91%
06:00 -3°C° 0 mm 2 mps 713 mmHg 91%
07:00 -3°C° 0 mm 2 mps 713 mmHg 89%
08:00 -1°C° 0 mm 1 mps 713 mmHg 88%
09:00 -1°C° 0 mm 1 mps 713 mmHg 87%
10:00 -1°C° 0 mm 2 mps 713 mmHg 87%
11:00 +1°C° 0 mm 2 mps 712 mmHg 87%
12:00 +2°C° 0 mm 2 mps 712 mmHg 87%
13:00 +2°C° 0.2 mm 2 mps 712 mmHg 91%
14:00 +2°C° 0.2 mm 2 mps 712 mmHg 94%
15:00 +2°C° 0.2 mm 2 mps 712 mmHg 97%
16:00 +2°C° 0.1 mm 2 mps 711 mmHg 97%
17:00 +1°C° 0.1 mm 2 mps 711 mmHg 97%
18:00 0°C° 0.1 mm 3 mps 711 mmHg 96%
19:00 0°C° 0.5 mm 3 mps 711 mmHg 97%
20:00 0°C° 0.5 mm 3 mps 711 mmHg 97%
21:00 0°C° 0.5 mm 3 mps 711 mmHg 97%
22:00 +1°C° 0.9 mm 3 mps 711 mmHg 97%
23:00 0°C° 0.9 mm 4 mps 711 mmHg 96%

7 December, Monday

Time Temperature Precipitation Wind Pressure Humidity
00:00 0°C° 0.9 mm 4 mps 710 mmHg 96%
01:00 0°C° 0.8 mm 4 mps 710 mmHg 96%
02:00 0°C° 0.8 mm 4 mps 711 mmHg 96%
03:00 0°C° 0.8 mm 4 mps 711 mmHg 96%
04:00 +1°C° 0.7 mm 4 mps 711 mmHg 95%
05:00 +1°C° 0.7 mm 4 mps 711 mmHg 95%
06:00 +1°C° 0.7 mm 5 mps 711 mmHg 94%
07:00 +1°C° 0.1 mm 5 mps 711 mmHg 94%
08:00 +1°C° 0.1 mm 5 mps 712 mmHg 93%
09:00 +1°C° 0.1 mm 5 mps 712 mmHg 93%
10:00 +1°C° 0 mm 5 mps 712 mmHg 91%
11:00 +2°C° 0 mm 5 mps 712 mmHg 90%
12:00 +2°C° 0 mm 5 mps 713 mmHg 88%
13:00 +2°C° 0 mm 5 mps 713 mmHg 89%
14:00 +2°C° 0 mm 5 mps 713 mmHg 90%
15:00 +3°C° 0 mm 4 mps 713 mmHg 91%
16:00 +1°C° 0 mm 4 mps 714 mmHg 91%
17:00 +1°C° 0 mm 3 mps 714 mmHg 92%
18:00 0°C° 0 mm 3 mps 714 mmHg 92%
19:00 +1°C° 0 mm 2 mps 714 mmHg 92%
20:00 +1°C° 0 mm 2 mps 714 mmHg 91%
21:00 +1°C° 0 mm 1 mps 714 mmHg 90%
22:00 +1°C° 0 mm 1 mps 714 mmHg 90%
23:00 +2°C° 0 mm 1 mps 714 mmHg 91%
Show more